Location: Morcenx
(44.0354°N, 0.9137°W)
Time: 14:06:08
(UTC+00:00)

Daily predictions for brighter satellites

Satellite Brightness Start Highest point End
(mag) Time Altitude Azimuth Time Altitude Azimuth Time Altitude Azimuth
Cosmos 2278 4.1 19:52:24 10° NNW 19:58:01 53° ENE 20:03:34 10° SE
CSL-04 Rocket 3.9 19:53:54 10° S 19:59:21 75° WSW 20:04:45 10° NNW
SL-16 R/B 2.3 19:54:00 10° NNW 19:59:41 70° ENE 20:05:19 10° SSE
CZ-4 R/B 1.1 19:56:07 10° SSE 19:59:44 83° ENE 20:03:25 10° N
Cosmos 1461 4.4 19:56:23 10° WSW 19:59:50 37° NW 20:03:16 10° NNE
Cosmos 1758 Rocket 4.0 19:55:38 10° N 19:59:55 44° ENE 20:04:09 10° SSE
SL-08 R/B 4.1 19:56:46 10° NNE 20:01:02 32° E 20:05:11 10° SSE
Cosmos 2228 3.2 19:57:04 10° SSW 20:01:08 70° W 20:05:14 10° N
GEOS 3 Rocket 4.4 19:57:25 10° ESE 20:02:25 43° NE 20:07:28 10° NNW
Cosmos 2098 Rocket 4.3 20:02:08 10° SE 20:05:26 21° E 20:08:22 10° NE
ASTEX 1 4.4 20:01:00 10° SSW 20:05:48 51° W 20:10:38 10° NNW
Cosmos 1980 Rocket 4.4 20:02:14 10° NW 20:06:34 23° W 20:10:53 10° SSW
PAYLOAD B 4.3 20:05:56 10° SSE 20:11:27 78° ENE 20:17:01 10° NNW
Okean-O 3.4 20:16:54 10° SE 20:20:54 36° ENE 20:24:55 10° N
Cosmos 220 Rocket 3.9 20:17:01 10° SSW 20:21:03 84° WNW 20:25:12 10° NNE
Cosmos 2061 Rocket 4.2 20:15:34 10° S 20:21:49 83° W 20:28:11 10° N
Feng Yun 1-1 Rocket 4.4 20:16:45 10° S 20:22:09 78° WSW 20:27:40 10° NNW
Cosmos 1602 Rocket 4.0 20:18:29 10° N 20:22:38 43° ENE 20:26:37 11° SSE
Tiangong -0.7 20:20:21 10° SSW 20:22:52 21° SSE 20:24:59 12° ESE
COSMOS 2406 4.3 20:23:03 10° SW 20:28:36 50° WNW 20:34:12 10° NNE
USA 215 3.8 20:22:33 10° SSE 20:28:52 53° SW 20:35:16 10° WNW
Okean 1 4.4 20:27:13 13° SE 20:29:20 22° E 20:32:08 10° NE
Cosmos 1437 Rocket 2.6 20:25:51 10° SSW 20:29:25 83° W 20:33:02 10° N
Cosmos 44 4.5 20:27:55 10° NNW 20:32:55 37° NE 20:37:16 12° ESE
Cosmos 2360 Rocket 2.3 20:27:21 10° NNW 20:33:01 66° ENE 20:37:57 14° SE
Cosmos 1891 Rocket 4.4 20:29:33 10° S 20:35:35 73° E 20:41:36 10° NNE
Cosmos 1486 Rocket 4.0 20:31:34 10° NNW 20:36:53 77° ENE 20:41:36 13° SSE
Cosmos 1626 Rocket 3.9 20:33:03 10° NNW 20:37:24 66° W 20:41:46 10° S
USA 306 4.2 20:39:09 10° NNW 20:40:26 12° N 20:41:31 10° NE
ISS -2.3 20:37:34 10° NW 20:40:38 32° NNE 20:43:41 10° E
Cosmos 2219 Rocket 2.6 20:36:44 10° NNW 20:42:16 50° ENE 20:46:35 16° SE
Cosmos 2333 Rocket 2.6 20:36:53 10° NNW 20:42:32 62° WSW 20:48:10 10° S
Meteor 1-20 Rocket 4.4 20:37:01 10° NNW 20:42:42 81° W 20:48:27 10° S
Cosmos 1833 4.2 20:37:12 10° S 20:42:45 62° ESE 20:48:17 10° NNE
CZ-4B R/B 3.5 20:37:48 10° S 20:43:25 72° WSW 20:49:00 10° NNW
Nadezhda 4 Rocket 4.3 20:39:29 10° N 20:45:24 48° ENE 20:50:08 16° SE
NOSS 3-4 (A) 4.0 20:39:10 10° NW 20:46:03 83° SW 20:52:57 15° SSE
NOSS 3-4 (C) 4.0 20:39:48 10° NW 20:46:44 84° SW 20:53:35 15° SSE
CZ-4B R/B 3.9 20:45:58 17° ESE 20:47:39 25° ENE 20:50:36 10° NNE
EXPRESS MD2 3.9 20:43:55 10° SSW 20:48:18 31° SSE 20:50:49 12° E
YAOGAN 11 4.2 20:44:07 10° NNE 20:48:34 61° ESE 20:52:59 10° S
Helios 1A Rocket 3.8 20:47:51 10° N 20:50:47 36° WNW 20:53:40 10° SW
Cosmos 1606 Rocket 3.6 20:49:29 13° S 20:53:11 55° E 20:57:23 10° NNE
Cosmos 2333 4.2 20:49:32 10° NNW 20:55:19 82° ENE 20:59:39 18° SSE
CZ-2C R/B 4.3 20:55:20 12° ENE 20:55:46 12° ENE 20:56:54 10° NE
Cosmos 1726 Rocket 3.8 20:54:39 20° SSE 20:57:02 41° E 21:00:52 10° NNE
USA 245 4.5 20:54:46 18° SE 20:58:53 53° ENE 21:03:56 10° N
ERS-1 Rocket 4.2 20:55:06 10° SSW 20:59:44 38° W 21:04:25 10° NNW
Cosmos 2151 3.8 20:56:06 10° NNW 21:00:02 47° W 21:03:56 10° SSW
Cosmos 1763 Rocket 3.5 20:59:18 10° SSW 21:04:34 85° ESE 21:09:52 10° NNE
Ariane Rocket 3.6 21:03:50 21° SE 21:06:47 44° ENE 21:11:34 10° N
Cosmos 2322 Rocket 2.6 21:03:30 10° NNW 21:09:06 62° WSW 21:13:25 17° S
Spot 2 Rocket 3.8 21:07:19 14° S 21:11:36 63° W 21:16:37 10° NNW
CZ-4B R/B 3.7 21:11:58 25° SE 21:14:33 51° ENE 21:19:19 10° N
Cosmos 1707 2.9 21:16:59 30° E 21:16:59 30° E 21:19:15 10° NNE
Cosmos 990 Rocket 3.9 21:14:01 10° NNW 21:19:13 85° ENE 21:22:12 26° SSE
Cosmos 1536 3.9 21:16:37 10° NNE 21:19:44 25° ENE 21:20:27 23° E
RESURS DK-1 3.6 21:16:58 10° N 21:20:29 29° NE 21:22:02 22° E
USA 186 2.5 21:21:32 25° SSW 21:22:36 37° W 21:25:12 10° NNW
Cosmos 1805 4.0 21:21:31 10° NNW 21:24:33 37° W 21:26:22 20° SSW
Okean O Rocket 2.5 21:25:02 16° SSW 21:28:09 42° W 21:32:15 10° NNW
Cosmos 2237 Rocket 4.1 21:24:16 10° N 21:28:19 19° NE 21:32:00 11° E
Terra 3.9 21:24:55 10° SW 21:28:30 22° W 21:32:07 10° NW
BlueWalker 3 1.7 21:30:19 10° SW 21:33:46 52° SE 21:37:13 10° ENE
BREEZE-M DEB (TANK) 3.4 21:31:52 10° WNW 21:33:57 22° N 21:34:57 15° NE
Cosmos 1898 Rocket 4.3 21:29:39 10° N 21:34:32 39° ENE 21:36:45 26° ESE
IRS-1C Rocket 4.0 21:36:26 30° SSE 21:39:07 85° ENE 21:44:25 10° NNW
GEOS 3 Rocket 4.5 21:37:28 23° S 21:40:20 41° WSW 21:45:24 10° NW
SL-16 R/B 4.4 21:39:27 10° WNW 21:43:06 18° W 21:46:45 10° SW
Cosmos 1076 Rocket 3.6 21:39:01 10° NNW 21:43:14 69° W 21:44:55 34° S
Cosmos 841 Rocket 3.8 21:42:21 35° SSE 21:43:55 45° ESE 21:48:54 10° NNE
Cosmos 540 Rocket 4.4 21:41:45 10° SW 21:46:41 47° WNW 21:51:39 10° N
Cosmos 1825 Rocket 4.4 21:43:24 10° NNW 21:47:35 45° W 21:49:56 23° SSW
Cosmos 372 Rocket 3.9 21:46:10 10° NNW 21:51:16 72° ENE 21:53:02 40° SE
SPOT 3 Rocket 3.9 21:48:58 27° S 21:51:41 58° W 21:56:45 10° NNW
Cosmos 1271 Rocket 3.1 21:53:10 38° ENE 21:53:10 38° ENE 21:55:50 10° NNE
Lacrosse 4 Rocket 3.2 21:55:36 18° ENE 21:55:36 18° ENE 21:57:12 10° ENE
COSMOS 2428 2.9 21:49:07 10° NNW 21:54:46 60° ENE 21:57:00 35° SE
Helios 1A 4.1 21:53:14 10° NE 21:56:05 27° E 21:56:05 27° E
Cosmos-2242 3.0 21:56:02 37° SSW 21:57:33 72° W 22:01:41 10° N
Helios 1B rocket 4.1 21:57:47 16° ENE 21:57:53 16° ENE 22:00:04 10° NNE
Cosmos 1953 Rocket 3.8 21:53:50 10° NNW 21:58:05 61° W 21:59:32 38° SSW
Tiangong 0.0 21:56:15 10° WSW 21:57:17 18° WSW 21:57:17 18° WSW
Cosmos 1092 Rocket 3.9 21:56:07 10° N 22:02:22 88° E 22:05:12 35° S
Cosmos 2297 Rocket 2.5 22:09:34 42° SE 22:10:29 45° ESE 22:15:50 10° NE
Cosmos 44 4.3 22:09:08 10° NW 22:14:04 39° WSW 22:15:33 32° SSW
Cosmos 2360 Rocket 4.2 22:12:34 10° WNW 22:16:23 19° W 22:19:42 12° SW
ISS -2.7 22:14:17 10° WNW 22:16:41 39° W 22:16:41 39° W
Cosmos 2058 Rocket 3.6 22:16:19 33° SW 22:17:55 52° WNW 22:22:10 10° N
Cosmos 1842 3.3 22:19:40 55° NNW 22:19:40 55° NNW 22:22:17 10° N
Cosmos 2221 2.4 22:24:00 63° E 22:24:00 63° E 22:28:08 10° NNE
Cosmos 1470 2.9 22:22:28 10° N 22:25:08 55° N 22:25:08 55° N
Cosmos 2219 Rocket 3.7 22:21:16 10° NW 22:25:51 26° WSW 22:28:17 19° SW
CZ-2C R/B 4.1 22:26:53 22° WNW 22:26:53 22° WNW 22:28:34 10° NW
Cosmos 1766 4.5 22:26:51 10° NNW 22:29:29 26° W 22:29:29 26° W
Cosmos 2279 Rocket 3.9 22:28:43 41° S 22:31:07 88° E 22:37:25 10° N
Cosmos 1937 Rocket 3.3 22:28:01 10° NNW 22:33:10 89° ENE 22:34:06 61° SSE
Cosmos 2322 3.9 22:28:14 10° NNW 22:33:50 62° WSW 22:35:16 46° SSW
Geosat 4.0 22:33:00 10° NE 22:37:57 57° ESE 22:38:10 57° SE
Meteor 1-11 Rocket 3.8 22:35:48 10° N 22:41:20 61° ENE 22:42:26 50° ESE
Meteor 1-10 Rocket 4.3 22:41:45 52° SSE 22:43:05 70° E 22:49:01 10° NNE
Meteor 1-27 Rocket 3.9 22:51:51 50° ESE 22:52:37 54° E 22:58:09 10° NNE
BREEZE-M R/B 4.3 22:46:17 10° WNW 22:53:20 70° NNE 22:57:16 21° ESE
Cosmos 1975 3.4 22:53:52 10° NNW 22:56:53 47° WNW 22:56:53 47° WNW
ARIANE 5 R/B 3.1 22:57:22 47° ENE 22:57:30 47° ENE 23:01:48 10° N
RESURS DK-1 3.9 22:54:27 10° NW 22:57:15 24° W 22:57:15 24° W
ALOS 2 3.3 23:01:24 42° ENE 23:01:29 42° ENE 23:05:38 10° N
Cosmos 2266 Rocket 3.8 22:56:42 10° N 23:02:47 82° E 23:04:07 57° SSE
NOSS 0 Rocket 4.1 22:56:56 10° NW 23:02:57 56° WSW 23:04:10 48° SSW
SL-16 R/B 3.7 23:00:22 10° N 23:05:18 29° NE 23:07:50 21° E
BlueWalker 3 3.6 23:08:06 10° W 23:11:18 31° NNW 23:14:31 10° NE
Cosmos 2237 Rocket 2.0 23:07:22 10° NNW 23:13:03 79° WSW 23:13:47 67° S
Cosmos 158 Rocket 3.9 23:13:56 71° SE 23:14:14 73° ESE 23:19:33 10° NNE
Cosmos 1812 Rocket 4.2 23:16:05 47° W 23:16:22 48° WNW 23:20:40 10° N
ARGOS Delta rocket 4.0 23:11:03 10° NNE 23:16:23 72° E 23:16:52 67° SE
Cosmos 1980 3.6 23:12:09 10° NNW 23:17:46 67° WSW 23:18:24 62° SSW
Cosmos 2263 Rocket 2.7 23:20:13 42° E 23:20:13 42° E 23:25:15 10° NE
Cosmos 2227 Rocket 2.1 23:20:47 66° SE 23:21:13 70° ESE 23:26:52 10° NNE
CZ-2C R/B 3.7 23:21:43 10° N 23:26:14 71° WNW 23:26:18 71° W
PSLV R/B 3.9 23:22:17 10° NNE 23:26:11 60° ENE 23:26:11 60° ENE
Cosmos 1814 Rocket 3.8 23:28:36 80° SSE 23:28:52 85° ESE 23:34:09 10° NNE
Helios 1B rocket 3.8 23:31:43 26° WNW 23:31:43 26° WNW 23:33:47 10° NNW
Lacrosse 4 Rocket 2.6 23:30:58 32° WNW 23:31:33 34° NW 23:35:19 10° NNE
Meteor 2-20 Rocket 4.1 23:33:36 68° S 23:34:22 90° E 23:40:07 10° N
COSMOS 2428 4.3 23:34:21 10° NW 23:38:27 21° W 23:38:59 21° WSW
Cosmos 192 4.2 23:34:44 10° NNW 23:39:35 81° W 23:39:35 81° W
Meteor 2-4 Rocket 3.6 23:44:03 67° SW 23:44:43 76° WNW 23:50:19 10° N
Cosmos 1842 Rocket 3.8 23:46:31 66° NE 23:46:31 66° NE 23:50:26 10° NNE
Cosmos 1238 Rocket 3.6 23:49:42 52° WNW 23:49:42 52° WNW 23:53:54 10° N
SL-14 R/B 4.5 23:51:25 35° NE 23:51:25 35° NE 23:53:56 10° NNE
Meteor 1-18 Rocket 4.2 23:51:33 65° SE 23:52:03 68° E 23:57:43 10° NNE
Cosmos 2084 3.9 23:48:50 10° NNW 23:52:16 56° N 23:52:16 56° N
Cosmos 2297 Rocket 3.7 23:51:18 17° WSW 23:54:40 30° NW 23:59:38 10° N
